User: anonymous   Login
Location: Honolulu
(21.3069°N, 157.8583°W)
Time: 07:20:40
(UTC-10:00)
Language:

Tiangong - Orbit

View from above orbital plane
View from above orbital plane
View from above satellite
View from above satellite

Ground track
Ground track

The orbit is defined by the following mean orbital elements,

1 48274U          26162.21782795 +.00000000 +00000-0 +24653-3 0 00009
2 48274  41.4694 358.3237 0008197  28.9315 331.1976 15.60563857    05
Epoch (UTC): 11 June 2026 05:13:40
Eccentricity: 0.0008197
inclination: 41.4694°
perigee height: 380 km
apogee height: 392 km
right ascension of ascending node: 358.3237°
argument of perigee: 28.9315°
revolutions per day: 15.60563857
mean anomaly at epoch: 331.1976°

The dashed part of the orbit path shows where the satellite is in the earth's shadow,  

DLR